Location: Amanico Ergina Village
(37.7824°N, 122.4366°W)
Time: 07:56:03
(UTC+00:00)

Cosmos 1689 Rocket - Pass Details

Date: 29 October 2020
Orbit: 360 x 374 km, 97.5° (Epoch: 02 December)

Event Time Altitude Azimuth Distance (km) Brightness Sun altitude
Rises 13:16:43 0° 159° (SSE) 2,228 6.3 -15.5°
Reaches altitude 10° 13:18:40 10° 155° (SSE) 1,378 5.3 -15.1°
Maximum altitude 13:21:33 56° 76° (ENE) 450 2.7 -14.6°
Drops below altitude 10° 13:24:26 10° 357° (N) 1,379 4.8 -14.0°
Sets 13:26:24 0° 353° (N) 2,229 5.8 -13.6°
